Location: Bottenau
(48.5138°N, 8.0462°E)
Time: 15:23:09
(UTC+00:00)

FALCON 9 DEB - Pass Details

Date: 18 April 2021
Orbit: 422 x 435 km, 53.0° (Epoch: 07 May)

Event Time Altitude Azimuth Distance (km) Brightness Sun altitude
Rises 20:44:19 0° 250° (WSW) 2,384 7.2 -20.4°
Reaches altitude 10° 20:46:25 10° 253° (WSW) 1,523 6.2 -20.6°
Maximum altitude 20:49:50 71° 337° (NNW) 460 3.3 -21.0°
Enters shadow 20:50:08 65° 19° (NNE) 478 3.3 -21.0°
